User: anonymous   Login
Location: Rounton
(54.4000°N, 1.3500°W)
Time: 12:42:40
(UTC+00:00)
Language:

S-56A Canister/Altair - Orbit

View from above orbital plane
View from above orbital plane
View from above satellite
View from above satellite

Ground track
Ground track

The orbit data is extracted from the following two-line orbital elements,

1 00082U 61004B   21342.76299974 -.00000099  00000-0 -45250-4 0  9996
2 00082  38.8584   1.4034 1174870 166.3743 197.1739 12.26012203874003
Epoch (UTC): 08 December 2021 18:18:43
Eccentricity: 0.1174870
inclination: 38.8584°
perigee height: 633 km
apogee height: 2500 km
right ascension of ascending node: 1.4034°
argument of perigee: 166.3743°
revolutions per day: 12.26012203
mean anomaly at epoch: 197.1739°
orbit number at epoch: 87400

The dashed part of the orbit path shows where the satellite is in the earth's shadow,  

DLR